User: anonymous   Login
Location: Unspecified
(0.0000°N, 0.0000°E)
Time: 09:36:06
(UTC+00:00)
Language:

NOAA 1 - Orbit

View from above orbital plane
View from above orbital plane
View from above satellite
View from above satellite

Ground track
Ground track

The orbit data is extracted from the following two-line orbital elements,

1  4793U 70106A   17295.82856409 -.00000030 +00000-0 +95461-4 0  9996
2  4793 101.7880 000.2332 0031761 012.4720 095.0044 12.53982508144671
Epoch (UTC): 22 October 2017 19:53:07
Eccentricity: 0.0031761
inclination: 101.7880°
perigee height: 1423 km
apogee height: 1473 km
right ascension of ascending node: 0.2332°
argument of perigee: 12.4720°
revolutions per day: 12.53982508
mean anomaly at epoch: 95.0044°
orbit number at epoch: 14467

The dashed part of the orbit path shows where the satellite is in the earth's shadow,  

DLR